Preview of NWS' New Version of Forecast
This preview is not operational and should not be used for support decisions.

Regional Weather Roundup (RWR)

Issued by National Weather Service (NWS)

                            
000
ASUS45 KABQ 211810
RWRNM 
NEW MEXICO REGIONAL WEATHER ROUNDUP
NATIONAL WEATHER SERVICE ALBUQUERQUE NM
1200 PM MDT SUN APR 21 2019

NOTE: "FAIR" MEANS FEW OR NO CLOUDS BELOW 12,000 FEET AGL WITH NO
       SIGNIFICANT WEATHER OR OBSTRUCTIONS TO VISION.

      THIS PRODUCT IS RELEASED AS TWO VERSIONS.  ONE VERSION NEAR
      THE TOP OF THE HOUR CONTAINING PRELIMINARY DATA FROM ALBUQUERQUE
      AND OTHER STATIONS.  A FINAL VERSION WITH ADDITIONAL DATA IS 
      ISSUED ABOUT 10 MINUTES AFTER THE HOUR.
 
NMZ501-503-504-510>518-211900-
NORTHWEST PLATEAU/NORTHCENTRAL MOUNTAINS
  
CITY           SKY/WX    TMP DP  RH WIND       PRES   REMARKS
FARMINGTON     FAIR      68  19  15 S13       29.94F                  
6HR MIN TEMP:  47; 6HR MAX TEMP:  68;                                

LOS ALAMOS       N/A     62  22  20 W15       30.05F                  
SANTA FE       FAIR      67  26  21 W20G29    30.01F                  
6HR MIN TEMP:  34; 6HR MAX TEMP:  68;                                

TAOS           FAIR      63  24  22 W22G28    30.04F                  
ANGEL FIRE       N/A     53  26  35 W26G32    30.07R                  

$$
NMZ402-403-502-505>509-211900-
WESTCENTRAL MOUNTAINS/SOUTHWEST MOUNTAINS
  
CITY           SKY/WX    TMP DP  RH WIND       PRES   REMARKS
GALLUP         FAIR      64  27  24 SW18G30   30.04S                  
6HR MIN TEMP:  42; 6HR MAX TEMP:  64;                                

GRANTS         PTSUNNY   62  23  23 W16G23    30.06F                  
SILVER CITY    FAIR      70  26  19 W16G23    30.07F                  

$$
NMZ407-409-411-412-211900-
SOUTHERN DESERTS
  
CITY           SKY/WX    TMP DP  RH WIND       PRES   REMARKS
DEMING         FAIR      76  25  15 W20G26    30.03S                  
6HR MIN TEMP:  48; 6HR MAX TEMP:  76;                                

LAS CRUCES     FAIR      77  23  13 SW20G28   30.03F                  
HOLLOMAN AFB   FAIR      77  26  15 W15       30.01F                  
ALAMOGORDO     FAIR      75  27  16 S8        30.01F                  
T OR C         FAIR      74  20  13 SE10      29.99F                  
6HR MIN TEMP:  52; 6HR MAX TEMP:  74;                                


$$
NMZ519>523-211900-
CENTRAL VALLEYS/CENTRAL HIGHLANDS
  
CITY           SKY/WX    TMP DP  RH WIND       PRES   REMARKS
ALBUQUERQUE    FAIR      68  26  20 W9G25     30.01F                  
6HR MIN TEMP:  52; 6HR MAX TEMP:  69;                                

DOUBLE EAGLE   MOSUNNY   66  30  26 SW17G29   30.03R                  
MORIARTY ARPT  FAIR      70  26  19 W17       30.04S                  
6HR MIN TEMP:  46; 6HR MAX TEMP:  70;                                

CLINES CORNERS FAIR      64  24  21 W26G38    30.06R                  
6HR MIN TEMP:  49; 6HR MAX TEMP:  64;                                

BELEN          FAIR      71  20  15 SW13      30.01F                  
6HR MIN TEMP:  49; 6HR MAX TEMP:  71;                                

SOCORRO        FAIR      73  19  13 SE6       29.98F                  
6HR MIN TEMP:  54; 6HR MAX TEMP:  74;                                


$$
NMZ524>526-539-540-211900-
SOUTHCENTRAL MOUNTAINS
  
CITY           SKY/WX    TMP DP  RH WIND       PRES   REMARKS
RUIDOSO        FAIR      68  21  17 SW15G21   30.09R                  

$$
NMZ527>531-211900-
NORTHEAST HIGHLANDS/NORTHEAST PLAINS
  
CITY           SKY/WX    TMP DP  RH WIND       PRES   REMARKS
LAS VEGAS      FAIR      67  25  20 W17G25    29.99S                  
6HR MIN TEMP:  42; 6HR MAX TEMP:  67;                                

RATON          FAIR      72  24  16 W20G28    29.91F                  
6HR MIN TEMP:  36; 6HR MAX TEMP:  72;                                

CLAYTON        FAIR      76  24  14 W20       29.85S                  
6HR MIN TEMP:  45; 6HR MAX TEMP:  77;                                


$$
NMZ532>537-211900-
EASTCENTRAL PLAINS
  
CITY           SKY/WX    TMP DP  RH WIND       PRES   REMARKS
SANTA ROSA     FAIR      76  27  16 W18G26    29.92F                  
TUCUMCARI      FAIR      81  32  17 W21G30    29.85S                  
6HR MIN TEMP:  48; 6HR MAX TEMP:  81;                                

CANNON AFB     FAIR      79  24  13 W16G26    29.93F                  
6HR MIN TEMP:  47; 6HR MAX TEMP:  79;                                

CLOVIS AIRPORT FAIR      79  26  14 W17G32    29.93S                  

$$
NMZ028-029-538-211900-
SOUTHEAST PLAINS
  
CITY           SKY/WX    TMP DP  RH WIND       PRES   REMARKS
ROSWELL        FAIR      86  22   9 SW14G20   29.89F                  
6HR MIN TEMP:  60; 6HR MAX TEMP:  86;                                

ARTESIA        FAIR      82  27  13 VRB5G14   29.91F                  
CARLSBAD       FAIR      84  28  13 W26G35    29.92F                  
6HR MIN TEMP:  58; 6HR MAX TEMP:  85;                                

HOBBS          SUNNY     84  25  11 SW21G30   29.95F                  


$$